Content
SEND FEEDBACK

Daily
Averages
Monthly
Summary
United States of America

TOULON, ILLINOIS


Home > North America > United States > Illinois
Elevation: 750 feet     Latitude: 41 05N     Longitude: 089 52W

WEATHER
 
SELECT A DAY
Number of Records: 324,214;   Date Range: 7/17/01 - 9/13/14
 
SHARE

PRINT THIS DATA

[ ← Previous Day ]
WEATHER ALMANAC - JANUARY 31, 2013
[ Next Day → ]
[ °C ]   °F
Weather ElementAverageHighLow
Temperature13 °F20.8 °F (3:55 am)3.2 °F (11:55 pm)
Dewpoint5.2 °F14.9 °F (3:35 am)-4.2 °F (11:35 pm)
Humidity71.4 %80 % (3:35 am)61 % (2:15 pm)
Barometer29.99 in30.28 in (11:55 pm)29.78 in (12:35 am)
Wind Speed14.9 mph23 mph (4:55 pm)
Wind Gust31.1 mph (7:35 pm)
Weather ElementAverage
Visibility8.8 mi
Wind DirectionWSW (263.2 °)

Weather ElementTotal
Precipitation---
Heating Degree Days53 (Base 65)
Averaged from 71 records on January 31, 2013
WEATHER CONDITIONS BREAKOUT
WIND DIRECTION BREAKOUT
WEATHER BY HOUR - JANUARY 31, 2013
[ °C ]   °F
Local TimeTemperatureDewpointHumidityBarometerVisibilityWind DirectionWind SpeedGust SpeedPrecipitationEventsConditions
12:35 AM17.6 °F11.3 °F76 %29.78 in7.0 miWest (260°)15.0 mph27.6 mphSnowLight Snow
12:55 AM16.7 °F10.4 °F76 %29.79 in10.0 miWest (260°)12.7 mph26.5 mphSnowLight Snow
1:15 AM16.7 °F10.4 °F76 %29.79 in10.0 miWest (260°)16.1 mph25.3 mphSnowLight Snow
1:35 AM16.7 °F10.9 °F78 %29.80 in10.0 miWest (260°)12.7 mph20.7 mphSnowLight Snow
1:55 AM16.7 °F11.1 °F79 %29.80 in10.0 miWest (260°)9.2 mph20.7 mphOvercast
2:15 AM17.2 °F11.3 °F78 %29.81 in10.0 miWest (260°)9.2 mph19.6 mphOvercast
2:35 AM17.6 °F11.8 °F78 %29.81 in10.0 miWSW (250°)10.4 mph16.1 mphOvercast
2:55 AM18.5 °F13.1 °F79 %29.81 in10.0 miWSW (250°)9.2 mphOvercast
3:15 AM19.9 °F14.0 °F78 %29.80 in10.0 miWSW (250°)13.8 mph20.7 mphOvercast
3:35 AM20.3 °F14.9 °F80 %29.80 in7.0 miWSW (250°)17.3 mph24.2 mphSnowLight Snow
3:55 AM20.8 °F13.6 °F74 %29.80 in10.0 miWSW (250°)15.0 mph24.2 mphOvercast
4:15 AM20.8 °F13.3 °F73 %29.81 in10.0 miWSW (250°)15.0 mph25.3 mphOvercast
4:35 AM20.8 °F12.6 °F70 %29.81 in10.0 miWSW (250°)11.5 mph25.3 mphOvercast
4:55 AM20.7 °F13.3 °F73 %29.81 in10.0 miWest (270°)15.0 mph20.7 mphOvercast
5:15 AM19.2 °F10.2 °F68 %29.82 in10.0 miWest (260°)15.0 mph26.5 mphScattered Clouds
5:35 AM18.1 °F10.9 °F73 %29.82 in10.0 miWest (260°)12.7 mph18.4 mphClear
5:55 AM17.2 °F9.1 °F71 %29.84 in10.0 miWest (260°)13.8 mph23.0 mphScattered Clouds
6:15 AM15.8 °F8.1 °F72 %29.85 in10.0 miWest (260°)19.6 mph29.9 mphClear
6:35 AM15.8 °F8.6 °F73 %29.86 in10.0 miWSW (250°)12.7 mph24.2 mphScattered Clouds
6:55 AM14.9 °F7.5 °F73 %29.87 in10.0 miWest (260°)12.7 mph24.2 mphMostly Cloudy
7:15 AM14.5 °F8.4 °F77 %29.89 in5.0 miWest (270°)16.1 mph23.0 mphSnowLight Snow
7:35 AM13.6 °F6.8 °F74 %29.89 in10.0 miWest (270°)12.7 mph17.3 mphScattered Clouds
7:55 AM14.0 °F6.8 °F73 %29.90 in10.0 miWSW (250°)10.4 mph17.3 mphScattered Clouds
8:15 AM14.9 °F7.7 °F73 %29.91 in10.0 miWSW (250°)11.5 mph17.3 mphMostly Cloudy
8:35 AM14.7 °F7.7 °F74 %29.91 in7.0 miWSW (250°)11.5 mph18.4 mphOvercast
8:55 AM14.9 °F7.3 °F72 %29.92 in10.0 miWest (260°)15.0 mph20.7 mphOvercast
9:15 AM15.1 °F7.5 °F72 %29.92 in10.0 miWSW (250°)12.7 mph19.6 mphOvercast
9:35 AM14.9 °F6.3 °F69 %29.93 in10.0 miWest (270°)13.8 mph23.0 mphOvercast
9:55 AM15.4 °F8.8 °F75 %29.94 in5.0 miWest (260°)9.2 mphSnowLight Snow
10:15 AM15.4 °F9.0 °F76 %29.95 in7.0 miWest (270°)11.5 mph19.6 mphOvercast
10:35 AM14.9 °F7.0 °F71 %29.96 in5.0 miWest (260°)11.5 mph20.7 mphSnowLight Snow
10:55 AM14.9 °F7.7 °F73 %29.96 in5.0 miWest (260°)13.8 mph18.4 mphSnowLight Snow
11:15 AM16.0 °F8.2 °F72 %29.96 in4.0 miWSW (250°)12.7 mph19.6 mphSnowLight Snow
11:35 AM15.3 °F5.0 °F64 %29.97 in10.0 miWSW (240°)15.0 mph20.7 mphMostly Cloudy
11:55 AM16.0 °F5.5 °F63 %29.97 in10.0 miWSW (240°)17.3 mph25.3 mphMostly Cloudy
12:15 PM15.3 °F5.4 °F65 %29.97 in10.0 miWSW (250°)15.0 mph26.5 mphOvercast
12:35 PM15.1 °F5.2 °F65 %29.98 in10.0 miWest (260°)15.0 mph23.0 mphOvercast
12:55 PM15.1 °F5.0 °F64 %29.98 in10.0 miWSW (250°)13.8 mph24.2 mphOvercast
1:15 PM14.4 °F5.4 °F67 %29.98 in7.0 miWest (270°)15.0 mph21.9 mphOvercast
1:35 PM14.7 °F5.4 °F66 %29.99 in7.0 miWest (260°)20.7 mph27.6 mphOvercast
1:55 PM14.2 °F3.9 °F64 %29.99 in10.0 miWest (260°)18.4 mph26.5 mphOvercast
2:15 PM14.4 °F3.2 °F61 %30.00 in10.0 miWSW (250°)16.1 mph27.6 mphMostly Cloudy
2:35 PM14.2 °F4.5 °F65 %30.01 in10.0 miWest (270°)19.6 mph23.0 mphMostly Cloudy
2:55 PM13.6 °F3.4 °F64 %30.01 in10.0 miWest (270°)17.3 mph26.5 mphMostly Cloudy
3:15 PM13.1 °F5.2 °F71 %30.03 in7.0 miWest (270°)16.1 mph24.2 mphMostly Cloudy
3:35 PM12.7 °F3.9 °F68 %30.04 in7.0 miWest (260°)12.7 mph24.2 mphOvercast
3:55 PM11.7 °F5.2 °F75 %30.05 in2.5 miWest (270°)18.4 mph23.0 mphSnowLight Snow
4:15 PM12.2 °F2.5 °F65 %30.06 in10.0 miWest (270°)20.7 mph28.8 mphOvercast
4:35 PM10.9 °F2.1 °F68 %30.07 in10.0 miWest (270°)17.3 mph26.5 mphMostly Cloudy
4:55 PM10.6 °F2.3 °F69 %30.08 in10.0 miWest (270°)23.0 mph29.9 mphMostly Cloudy
5:15 PM9.5 °F0.7 °F67 %30.09 in10.0 miWest (280°)17.3 mph27.6 mphMostly Cloudy
5:35 PM9.5 °F1.4 °F70 %30.10 in10.0 miWest (270°)17.3 mph25.3 mphMostly Cloudy
5:55 PM9.0 °F1.2 °F71 %30.12 in7.0 miWest (280°)18.4 mph26.5 mphMostly Cloudy
6:15 PM8.6 °F-0.4 °F67 %30.13 in10.0 miWest (260°)17.3 mph26.5 mphOvercast
6:35 PM8.2 °F2.1 °F76 %30.14 in7.0 miWest (260°)15.0 mph25.3 mphOvercast
6:55 PM8.2 °F-0.8 °F67 %30.15 in10.0 miWest (270°)19.6 mph26.5 mphMostly Cloudy
7:15 PM7.5 °F-0.9 °F68 %30.15 in10.0 miWest (270°)13.8 mph24.2 mphScattered Clouds
7:35 PM6.8 °F-2.2 °F67 %30.16 in10.0 miWest (270°)16.1 mph31.1 mphScattered Clouds
7:55 PM6.8 °F-2.2 °F67 %30.17 in10.0 miWest (270°)15.0 mph24.2 mph
8:15 PM6.4 °F0.1 °F75 %30.18 in10.0 miWest (280°)17.3 mph23.0 mph
8:35 PM5.9 °F-2.4 °F69 %30.19 in10.0 miWest (280°)18.4 mph27.6 mph
8:55 PM5.9 °F-1.5 °F72 %30.20 in10.0 miWest (280°)12.7 mph25.3 mphMostly Cloudy
9:15 PM5.5 °F-2.2 °F70 %30.21 in10.0 miWest (280°)16.1 mph31.1 mphMostly Cloudy
9:35 PM5.2 °F-0.2 °F78 %30.22 in4.0 miWest (280°)15.0 mph23.0 mphHaze
9:55 PM5.0 °F-0.9 °F76 %30.23 in4.0 miWest (280°)17.3 mph25.3 mphHaze
10:15 PM4.8 °F-1.7 °F75 %30.24 in3.0 miWNW (290°)15.0 mph26.5 mphHaze
10:35 PM4.3 °F-2.0 °F75 %30.25 in7.0 miWest (280°)15.0 mph24.2 mphMostly Cloudy
10:55 PM4.1 °F-4.0 °F69 %30.25 in10.0 miWNW (290°)15.0 mph26.5 mphScattered Clouds
11:15 PM4.1 °F-2.7 °F73 %30.26 in7.0 miWest (260°)9.2 mph19.6 mphMostly Cloudy
11:35 PM3.6 °F-4.2 °F70 %30.27 in10.0 miWest (260°)16.1 mph23.0 mphScattered Clouds
11:55 PM3.2 °F-4.0 °F72 %30.28 in10.0 miWest (270°)16.1 mph21.9 mphScattered Clouds
Hourly data recorded from KC75, located miles away from Toulon, Illinois







STORIES FROM OUR PARTNERS